• MPC Preparation (Info)

  • MPEC 2019-D25 : 2000 GV127

    The following Minor Planet Electronic Circular may be linked-to from your own Web pages, but must not otherwise be redistributed electronically.

    A form allowing access to any MPEC is at the bottom of this page.


    Read MPEC 2019-D24 Read MPEC 2019-D26


    M.P.E.C. 2019-D25                                Issued 2019 Feb. 24, 11:42 UT
    
         The Minor Planet Electronic Circulars contain information on unusual
             minor planets and routine data on comets.  They are published
        on behalf of Division F of the International Astronomical Union by the
              Minor Planet Center, Smithsonian Astrophysical Observatory,
                              Cambridge, MA 02138, U.S.A.
    
                 Prepared using the Tamkin Foundation Computer Network
    
                                  MPC@CFA.HARVARD.EDU
                URL https://www.minorplanetcenter.net/    ISSN 1523-6714
    
                                      2000 GV127
    
                               Revision to MPEC 2000-G47
    
    Additional Observations:
         K00GC7V |C2019 02 23.07363 06 19 54.00 -11 51 12.3          20.7 VuED025807
         K00GC7V |C2019 02 23.07735 06 19 53.92 -11 51 08.6          20.7 VuED025807
         K00GC7V |C2019 02 23.08107 06 19 53.86 -11 51 05.1          20.9 VuED025807
         K00GC7V |C2019 02 24.10479 06 19 41.87 -11 33 55.4          20.5 VuED025807
         K00GC7V |C2019 02 24.10929 06 19 41.80 -11 33 50.8          20.5 VuED025807
         K00GC7V |C2019 02 24.11380 06 19 41.74 -11 33 46.2          20.5 VuED025807
    
    Observer details:
    807 Cerro Tololo Observatory, La Serena.  Observers T. Linder, R. Holmes.
        0.61-m f/6.5 astrograph + CCD.
    
    First and last observations above in comparison with prediction:
    Residuals in seconds of arc (or two decimals in degrees), reference and Delta-T
    190223 807 0.21- 0.13+    190224 807 0.20- 0.13+    MPO  2769   +0.29 day
    
    Orbital elements:
    2000 GV127                                               Earth MOID = 0.0944 AU
    Epoch 2019 Apr. 27.0 TT = JDT 2458600.5                 MPC
    M 357.65483              (2000.0)            P               Q
    n   0.20546136     Peri.    2.60235     -0.94197400     +0.32330397
    a   2.8443472      Node   197.12165     -0.31326189     -0.94332594
    e   0.6149725      Incl.   17.86807     -0.12063154     -0.07490471
    P   4.80           H   19.2           G   0.15           U   0
    Residuals in seconds of arc
    000410 704  0.2-  0.0     000420 151  0.2-  0.4-    000425 587  0.3+  0.2-
    000410 704  0.0   0.2+    000420 151  0.3+  0.7-    000425 587  0.1-  0.0
    000410 704  0.5+  0.2+    000420 610  0.3+  0.0     000425 113  0.0   1.0+
    000410 704  0.2+  0.3+    000420 151 (2.4+  0.3-)   000425 113  0.2+  0.4+
    000410 704  0.4+  0.1+    000420 610  0.1+  0.1-    000425 113  0.4+  0.0
    000411 860  1.3+  0.3+    000420 610  0.1+  0.1-    000425 113  0.6+  0.2+
    000411 860  0.8+  0.5-    000420 610  0.1+  0.2-    000426 670  0.1+  0.1+
    000411 860  0.6+  0.6+    000421 151  0.5+  0.2-    000426 670  0.0   0.1-
    000411 670  0.4-  0.2+    000421 151  0.3-  0.5-    000426 118  0.2-  0.2+
    000411 670  0.2-  0.0     000421 151  0.5-  0.6-    000426 118  0.0   0.3+
    000411 670  0.1-  0.4-    000421 151  0.3-  0.7-    000427 704  0.0   0.4-
    000411 428  0.6-  0.7+    000421 151  0.7-  0.8-    000427 704  0.3+  0.8-
    000411 428  0.1+  0.6-    000421 151  0.7-  0.6-    000427 704 (0.8+  2.5-)
    000411 428  0.1-  0.2+    000421 118  0.3+  0.1+    000502 118  0.3-  0.1-
    000411 428  0.8+  0.2+    000421 118  0.2+  0.1+    000502 118  0.2-  0.0
    000411 402  0.5-  0.2-    000421 118  0.3+  0.0     000503 360  0.4+  0.6-
    000411 402  0.0   0.2+    000422 610  1.2-  0.3-    000503 360  0.5+  0.4-
    000411 402  0.1+  0.0     000422 610  1.3-  0.0     000503 360  0.5+  0.7-
    000411 402  0.4-  0.3-    000422 610  1.4-  0.3+    000504 046  0.1+  0.0
    000411 413  0.1+  0.1+    000422 610  1.4-  0.7+    000504 046  0.1+  0.6+
    000411 413  0.0   0.3+    000422 118  0.0   0.1+    000504 046  0.1+  0.7+
    000411 900  1.0+  0.5-    000422 118  0.1+  0.0     000504 046  0.5+  0.4+
    000411 900  0.7-  0.4-    000422 118  0.5+  0.0     000504 046  0.2+  0.4+
    000411 360  0.6-  0.4-    000423 349  0.8+  0.6-    000506 118  0.2-  0.1-
    000411 360  0.4-  0.1-    000423 349  0.3+  0.5-    000506 118  0.0   0.2-
    000411 046  0.4+  0.0     000423 349  0.2-  0.5-    000508 118  0.6+  0.4-
    000411 046  0.8-  0.6+    000423 355  0.6-  0.1-    000508 118  0.0   0.0
    000412 678  0.3+  0.9-    000423 355  0.3+  0.3-    000508 402  0.2-  0.0
    000412 678  0.0   0.3-    000423 355  0.4-  0.4+    000508 402  0.1+  0.3+
    000412 678  0.4-  1.2-    000423 046  0.0   0.1-    000508 402  0.3-  0.6+
    000412 854  1.0-  0.2-    000423 046  0.1+  0.0     000509 360  0.2+  0.2+
    000412 854  1.0-  0.8-    000423 046  0.2-  0.1-    000509 360  0.4+  0.2+
    000412 854  0.9-  1.2-    000423 046  0.0   0.2+    000509 360  0.2+  0.2+
    000412 557  0.4+  0.0     000423 046  0.1+  0.1+    000511 118  0.1-  0.0
    000412 557  0.4+  0.0     000423 118  0.7+  0.4+    000511 118  0.0   0.0
    000412 557  0.0   0.3+    000423 118  0.6+  0.5+    000511 118  0.1+  0.0
    000412 557  0.1+  0.4+    000423 118  0.6+  0.4+    000512 670 (2.3-  1.4+)
    000413 704  0.1-  0.5+    000424 739  0.9+  1.0+    000512 670  0.7+  0.2+
    000413 704 (2.2-  0.8-)   000424 739  0.7-  0.2-    000513 699  0.1+  0.3-
    000413 704  0.2+  0.6+    000424 739  0.6-  0.6-    000513 699  0.1+  0.2-
    000413 704  0.6-  0.1+    000424 739  0.3-  0.5-    000513 699  0.0   0.3+
    000415 739  0.1-  0.6+    000424 670  1.0+  0.2-    000513 699  0.3-  0.2+
    000415 739  0.9+  0.9+    000424 670  0.8+  0.1-    000514 118  0.6+  0.0
    000415 118  1.3+  0.0     000424 658  0.2-  0.2+    000515 118  0.0   0.3+
    000415 118  0.2+  0.1-    000424 658  0.1-  0.2-    000515 540  0.4+  0.7-
    000415 118  0.6+  0.5+    000424 658  0.3+  0.5+    000515 540  0.2+  0.3-
    000416 900  0.1-  0.2+    000424 903  0.1-  0.5+    000515 540  0.1-  0.2-
    000416 900  0.5+  0.5+    000424 903  1.5-  0.9-    000515 118  0.4+  0.9+
    000416 046  0.1-  0.3-    000424 903  0.2+  0.3+    000515 118  0.4-  0.2+
    000416 046  0.2+  0.1+    000424 402  1.1+  0.3+    000515 118  0.4+  0.0
    000416 046  0.1-  0.2+    000424 402  0.1+  1.0-    000601 360  0.1+  0.5+
    000416 046  0.0   0.3-    000424 402  0.8+  1.1-    000601 360  0.2-  0.5+
    000416 046  0.3-  0.3+    000425 670  0.0   0.5-    000601 360  0.1-  0.6+
    000416 046  0.6+  0.0     000425 670 (2.4+  0.5+)   000620 658  0.2-  0.5-
    000417 118  0.5+  0.3+    000425 670  0.0   0.3-    000620 658  0.4-  0.2-
    000417 118  0.8+  0.1+    000425 151  0.2+  0.5+    000620 658  0.5-  0.0
    000417 118  1.1+  0.3+    000425 151  0.4-  0.1-    000708 413  0.2-  0.2+
    000419 610  0.6+  1.5+    000425 151  0.1+  0.4+    000708 413  0.3-  0.3-
    000419 610  0.6-  1.2+    000425 151  0.1-  0.2-    000708 413  0.2-  0.0
    000419 610  1.6-  1.1+    000425 151  0.2+  0.0     000723 413  0.2+  0.5-
    000419 610 (2.8-  0.9+)   000425 151  0.3+  0.2+    000723 413  0.5-  0.2-
    000420 540  0.2-  0.2+    000425 610  0.9-  0.0     000723 413  0.5+  1.2-
    000420 151  0.1+  0.9-    000425 610  0.6-  0.0     190223 807  0.1-  0.3-
    000420 540  0.1+  0.1+    000425 610  0.4-  0.1+    190223 807  0.3-  0.3-
    000420 540  0.2-  0.1-    000425 610  0.0   0.2+    190223 807  0.2-  0.6-
    000420 151  0.8-  0.1+    000425 610  0.5+  0.8-    190224 807  0.0   0.0
    000420 540  0.1+  0.2+    000425 610  0.2-  0.4-    190224 807  0.1-  0.0
    000420 540  0.1-  0.0     000425 610  0.9-  0.1-    190224 807  0.1-  0.0
    000420 151  0.6-  0.8-    000425 610  1.8-  0.4+
    
    Ephemeris:
    2000 GV127               a,e,i = 2.84, 0.61, 18                  q = 1.0952
    Date    TT    R. A. (2000) Decl.     Delta      r     Elong.  Phase     V
    2019 01 25    06 46 16.5 -16 21 00   0.7914  1.6521   136.7    24.1    20.9
    ...
    2019 02 09    06 28 21.7 -14 59 53   0.7280  1.5348   126.4    31.2    20.8
    ...
    2019 02 17    06 22 17.5 -13 24 05   0.7034  1.4738   120.3    35.4    20.7
    ...
    2019 02 23    06 19 55.2 -11 52 30   0.6875  1.4292   115.8    38.6    20.7
    2019 02 24    06 19 43.3 -11 35 47   0.6850  1.4219   115.0    39.1    20.7
    2019 02 25    06 19 34.8 -11 18 41   0.6825  1.4146   114.3    39.6    20.7
    ...
    2019 03 03    06 19 59.2 -09 28 31   0.6681  1.3718   110.0    42.8    20.7
    ...
    2019 03 11    06 23 59.1 -06 44 10   0.6494  1.3172   104.7    46.8    20.6
    ...
    2019 03 26    06 42 24.3 -00 54 35   0.6124  1.2257    96.2    54.0    20.6
    
    A. U. Tomatic                (C) Copyright 2019 MPC           M.P.E.C. 2019-D25
    

    Read MPEC 2019-D24 Read MPEC 2019-D26


    MPEC number:

    Enter an MPEC number in one of the following forms:

    • 1997-B01 (the full form)
    • J97B01 (the packed version of the full form)
    • B01 (the abbreviated form)